Regional Weather Roundup
Issued by NWS Wakefield, VA

Home | Current Version | Previous Version | Graphics & Text | Print | Product List | Glossary On
Versions: 1 2 3 4 5 6 7 8 9 10 11 12 13 14 15 16 17 18 19 20 21 22 23 24 25 26 27
000
ASUS41 KAKQ 161315
RWRAKQ

REGIONAL WEATHER ROUNDUP
NATIONAL WEATHER SERVICE WAKEFIELD VA
900 AM EDT MON OCT 16 2017

Note: "fair" indicates few or no clouds below 12,000 feet with no
significant weather and/or obstructions to visibility. * = Denotes
station may not report precipitation (e.g., rain,snow,etc.),
thunder or fog.

VAZ042-051-052>054-056-161400-
NORTHERN VIRGINIA

CITY           SKY/WX    TMP DP  RH WIND       PRES   REMARKS
WASH NATIONAL  CLOUDY    62  53  72 NW10      30.07R
DULLES         CLOUDY    59  50  72 NW13      30.07R
FORT BELVOIR   CLOUDY    60  53  78 NW7       30.06R
QUANTICO       CLOUDY    61  57  87 NW7       30.07R
FREDERICKSBRG* PTSUNNY   60  56  85 NW5       30.06R
STAFFORD*      PTSUNNY   58  56  95 N7        30.10S
WARRENTON      CLOUDY    60  45  57 NW12      30.07R
CULPEPER*      CLOUDY    60  47  62 N8        30.09R
MANASSAS*      CLOUDY    59  50  72 NW13      30.08R
LEESBURG*      CLOUDY    61  50  67 N16G26    30.08R
WINCHESTER     CLOUDY    54  43  66 NW14G20   30.10R
FRONT ROYAL*   CLOUDY    57  43  58 NW6       30.10R
LURAY*         CLOUDY    59  43  55 NW13G20   30.11R
$$

VAZ048-049-060>072-079>083-161400-
CENTRAL AND SOUTH CENTRAL VIRGINIA

CITY           SKY/WX    TMP DP  RH WIND       PRES   REMARKS
RICHMOND       LGT RAIN  58  55  90 N9        30.06R
CHESTERFIELD*  NOT AVBL
PETERSBURG*    DRIZZLE   58  55  89 N10G16    30.06R
HANOVER        CLOUDY    58  57  97 CALM      30.07R
TAPPAHANNOCK*  RAIN     N/A N/A N/A NE5       30.06R
QUINTON*       CLOUDY    57  57 100 N3        30.05R
CHARLOTTSVILLE CLOUDY    60  51  72 N6        30.07R
GORDONSVILLE*  PTSUNNY   60  55  83 NW5       30.07R
ORANGE*        CLOUDY    59  50  72 CALM      30.08R
LOUISA*        CLOUDY    59  55  88 CALM      30.07R
BUMPASS*       PTSUNNY   58  57  96 NW5       30.07R
FARMVILLE*     CLOUDY    62  62 100 CALM      30.06R
CREWE*         CLOUDY    58  58 100 E3        30.06R
FORT PICKETT*  CLOUDY    58  58 100 N10G20    30.07R
CHASE CITY*    CLOUDY    61  61 100 NW5       30.06R
CLARKSVILLE*   CLOUDY    61  61 100 W5        30.06R
SOUTH HILL*    CLOUDY    63  62  99 N8        30.10R
LAWRENCEVILLE* CLOUDY    62  60  94 NE8       30.05R
EMPORIA*       CLOUDY    61  55  82 N16       30.07R
$$

VAZ088>098-161400-
SOUTHEAST VIRGINIA

CITY           SKY/WX    TMP DP  RH WIND       PRES   REMARKS
NORFOLK        CLOUDY    65  61  87 N15G22    30.01R
VIRGINIA BEACH LGT RAIN  65  60  84 N13G22    29.99R
NORFOLK NAVAL  CLOUDY    64  58  80 N12G21    30.03R
WEST POINT*    CLOUDY    59  58  95 NW3       30.08R
SALUDA*        CLOUDY    60  60  99 N16G22    30.04R
NEWPORT NEWS   LGT RAIN  62  59  90 N8        30.04R FOG
LANGLEY AFB    LGT RAIN  63  58  82 N12       30.03R
FORT EUSTIS    LGT RAIN  63  59  88 N9        30.01R FOG
WILLIAMSBURG*  CLOUDY    61  61 100 NW9       30.06R
HR EXEC AP*    NOT AVBL
FRANKLIN*      CLOUDY    61  57  87 N10G18    30.04R
US460-WAKEFLD  CLOUDY    59  58  96 N8        30.05R
$$

VAZ020-022-025-037-045-161400-
WEST CENTRAL AND SOUTHWEST VIRGINIA

CITY           SKY/WX    TMP DP  RH WIND       PRES   REMARKS
STAUNTON*      CLOUDY    56  43  61 NW9       30.11S
WAYNESBORO*    CLOUDY    55  46  69 NW13      30.10R
HOT SPRINGS VA CLOUDY    45  39  80 NW16G25   30.12R
LYNCHBURG      CLOUDY    57  51  80 NW9       30.09R
DANVILLE       LGT RAIN  58  56  93 NW8       30.08R
SOUTH BOSTON*  CLOUDY    59  58  96 NW6       30.07R
MARTINSVILLE   PTSUNNY   55  50  84 N6        30.13R
ROANOKE        CLOUDY    56  43  61 NW13G22   30.14R
BLACKSBURG     CLOUDY    51  42  71 NW13G18   30.18R
DUBLIN*        CLOUDY    51  42  70 NW13G20   30.17R
MARION*        PTSUNNY   48  38  66 NW9       30.21R
HILLSVILLE*    CLOUDY    47  40  74 NW9       30.14R
RICHLANDS*     CLOUDY    46  42  88 NW3       30.21R
WISE*          CLOUDY    45  45 100 N6        30.23R
ABINGDON*      PTSUNNY   50  43  75 CALM      30.20R
$$

MDZ021>025-VAZ099-100-161400-
SOUTHERN MARYLAND AND THE DELMARVA PENINSULA

CITY           SKY/WX    TMP DP  RH WIND       PRES   REMARKS
PATUXENT RIVER LGT RAIN  61  58  90 NW13      30.05R
BAY BRIDGE APT CLOUDY    63  55  77 NW8       30.02R
LEONARDTOWN    NOT AVBL
DOVER          LGT RAIN  60  58  92 W7        30.00R
GEORGETOWN     LGT RAIN  59  57  93 SW5       30.01R
EASTON         LGT RAIN  61  59  94 CALM      30.05R
CAMBRIDGE      PTSUNNY   61  59  94 CALM      30.02R FOG
SALISBURY      CLOUDY    59  56  89 N8        30.01R
OCEAN CITY     CLOUDY    60  56  86 N12       30.00R
WALLOPS ISLAND LGT RAIN  61  57  87 N8        30.01R
ACCOMACK*      CLOUDY    64  57  80 N14G21    30.03R
$$

NCZ012>017-030>032-161400-
NORTH CENTRAL AND EASTERN NORTH CAROLINA

CITY           SKY/WX    TMP DP  RH WIND       PRES   REMARKS
ROANOKE RAPIDS NOT AVBL
RALEIGH        CLOUDY    67  61  81 N8        30.04R
ELIZABETH CITY PTSUNNY   71  69  93 SW9       29.98R
AHOSKIE*       PTSUNNY   69  67  93 CALM      30.00R
EDENTON*       CLOUDY    72  68  89 W6        30.00R
CURRITUCK*     CLOUDY    70  67  91 SW10      29.99R
KILL DEVIL HLS SUNNY     71  71 100 CALM      29.97R
MANTEO         SUNNY    N/A N/A N/A W6        29.99R
CAPE HATTERAS  MOSUNNY   76  74  93 W6        30.00R
TARBORO*       NOT AVBL
GOLDSBORO      PTSUNNY   70  67  93 W7        29.99R
WASHINGTON     MOSUNNY   69  67  93 SW6       30.00R
GREENVILLE     MOSUNNY   68  68 100 W3        30.02R FOG
NEW BERN       MOSUNNY   71  69  93 SW6       30.02R
WILMINGTON     SUNNY     73  70  90 W8        30.00R
$$

VAZ048-161400-
ELSEWHERE

CITY           SKY/WX    TMP DP  RH WIND       PRES   REMARKS
HARRISBURG PA  CLOUDY    56  44  64 NW17      30.05R
BALTIMORE      CLOUDY    60  52  74 NW9G17    30.05R
ANNAPOLIS      CLOUDY    62  58  86 W7        30.04R
ANDREWS AFB    CLOUDY    60  52  74 NW13      30.04R
PHILADELPHIA   PTSUNNY   60  48  64 N12       29.99R
HENDERSON NC   CLOUDY    60  56  88 N10G16    30.05R
GREENSBORO     LGT RAIN  57  56  96 NE8       30.08R
ROCKY MOUNT    PTSUNNY   70  67  90 NW6       30.01R
$$

VAZ100-161400-
MARINE

STATION/POSITION TIME  TEMP    WIND        PRES    WAVE   SWELL
                       AIR SEA DIR/SP/G            HT/PER HT/PER
                 (UTC) (F)     (DEG/KT/KT) (MB)    (FT/S) (FT/S)
BRANDYWINE LGT   1242   64     340/ 14/ 18 1015.4R
CAPE MAY NJ      1248   63 69  330/ 11/ 14 1014.7R
LEWES DE         1242   62 69  340/ 10/ 13 1015.5R
15NM E FENWICK I 1250   64 69  330/ 14/ 17 1015.3R   5/ 6   2/ 9
OCEAN-CITY-INLET 1242   62 70  350/ 12/ 15 1016.3R
WACHAPREAGUE VA  1242   63 70  340/  4/ 11 1015.9R
THOMAS POINT MD  1300   62 70  300/ 15/ 16   N/A
GOOSES REEF MD   1250   65     320/ 16/ 19 1010.6R
COVE POINT MD    1242   63     350/ 17/ 21 1017.6R
SOLOMONS ISLAND  1242   61 72  330/  6/ 10 1017.0R
BISHOPS HEAD MD  1242   60 69  340/  7/  8 1016.8R
PINEY POINT MD   1242          340/ 12/ 14   N/A
POTOMAC MD       1250   61     350/ 10/ 14 1016.6R
CAMBRIDGE MD     1242   60 71              1017.1R
LEWISETTA VA     1242   60 70  360/  7/ 11 1017.2R
RAPPAHANNOCK LGT 1242          360/ 23/ 27 1016.8R
STINGRAY PT      1250   64     360/ 16/ 17 1016.6R
YORK RVR RNG VA  1242   65     350/ 16/ 19 1016.6R
YORKTOWN VA      1242   64 73  350/ 12/ 16 1016.5R
JAMESTOWN VA     1250          340/ 10/ 14   N/A
DOMINION TERM VA 1242   65      20/  4/ 11 1016.7R
KIPTOPEKE VA     1242      72   20/ 10/ 14   N/A
CAPE HENRY VA    1242   67     340/ 22/ 25   N/A
WILLOUBY STN VA  1242   65     360/ 15/ 17 1016.4R
S CRANEY ISL VA  1242   65     350/ 15/ 19 1016.0R
CAPE HENRY BUOY  1230      72                N/A     3/ 8
1ST LANDING BUOY 1250   67                 1015.8R
CAPE CHARLES BUO 1251      72                N/A     3/ 3
64NM E OF VA BCH 1250   71 70  230/ 12/ 16 1014.9R   3/ 8   2/ 8
DUCK PIER NC     1242   72 72  240/ 10/ 13 1014.8R
44100 DUCK FRF   1235      72                N/A     2/ 9
44056 DUCK FRF   1230      72                N/A     2/ 8
OREGON INLET NC  1242   73 75  240/ 11/ 12 1015.1R
HATTERAS NC      1242   75 77  280/ 11/ 13 1015.3R
DIAMOND SHLS NC  1250   75 77  310/ 10/ 12 1015.7R   3/ 8   3/ 8
CAPE LOOKOUT NC  1200   75     300/ 10/ 11 1015.3R
$$




USA.gov is the U.S. government's official web portal to all federal, state and local government web resources and services.